Content
SEND FEEDBACK

Daily
Averages
Monthly
Summary
United Kingdom

CHAPEL, ENGLAND


Home > Europe > United Kingdom > England
Elevation: 30 feet     Latitude: 50 54N     Longitude: 001 24W

WEATHER
 
SELECT A DAY
Number of Records: 192,812;   Date Range: 7/1/96 - 7/24/14
 
SHARE

PRINT THIS DATA

[ ← Previous Day ]
WEATHER ALMANAC - JANUARY 31, 2013
[ Next Day → ]
[ °C ]   °F
Weather ElementAverageHighLow
Temperature48.7 °F51.8 °F (1:50 pm)46.4 °F (7:20 pm)
Dewpoint36.9 °F44.6 °F (6:50 am)33.8 °F (2:20 pm)
Humidity64.3 %87 % (6:50 am)54 % (1:50 pm)
Barometer29.92 in29.98 in (5:50 pm)29.83 in (7:20 am)
Wind Speed14.1 mph19.6 mph (10:20 am)
Wind Gust33.4 mph (10:20 am)
Weather ElementAverage
Visibility6.2 mi
Wind DirectionWSW (245.3 °)

Weather ElementTotal
Precipitation---
Heating Degree Days15.9 (Base 65)
Averaged from 32 records on January 31, 2013
WEATHER CONDITIONS BREAKOUT
WIND DIRECTION BREAKOUT
WEATHER BY HOUR - JANUARY 31, 2013
[ °C ]   °F
Local TimeTemperatureDewpointHumidityBarometerVisibilityWind DirectionWind SpeedGust SpeedPrecipitationEventsConditions
6:50 AM48.2 °F44.6 °F87 %29.86 in6.2 miSW (230°)15.0 mph31.1 mphRainLight Rain
7:20 AM50.0 °F39.2 °F66 %29.83 in6.2 miWSW (240°)17.3 mphScattered Clouds
7:50 AM48.2 °F39.2 °F71 %29.86 in6.2 miWSW (240°)13.8 mphScattered Clouds
8:20 AM48.2 °F39.2 °F71 %29.86 in6.2 miWSW (240°)10.4 mphPartly Cloudy
8:50 AM48.2 °F37.4 °F66 %29.86 in6.2 miWSW (240°)12.7 mphPartly Cloudy
9:20 AM48.2 °F37.4 °F66 %29.86 in6.2 miWSW (250°)15.0 mphPartly Cloudy
9:50 AM50.0 °F37.4 °F62 %29.89 in6.2 miWSW (250°)18.4 mph32.2 mphPartly Cloudy
10:20 AM50.0 °F37.4 °F62 %29.89 in6.2 miWSW (250°)19.6 mph33.4 mphScattered Clouds
10:50 AM50.0 °F37.4 °F62 %29.92 in6.2 miWSW (250°)18.4 mph32.2 mphScattered Clouds
11:20 AM50.0 °F35.6 °F58 %29.92 in6.2 miWest (260°)17.3 mphScattered Clouds
11:50 AM50.0 °F35.6 °F58 %29.92 in6.2 miWest (260°)18.4 mph31.1 mphScattered Clouds
12:20 PM50.0 °F35.6 °F58 %29.92 in6.2 miWest (260°)17.3 mph28.8 mphScattered Clouds
12:50 PM50.0 °F35.6 °F58 %29.92 in6.2 miWest (270°)16.1 mphScattered Clouds
1:20 PM50.0 °F35.6 °F58 %29.92 in6.2 miWest (270°)17.3 mph28.8 mphScattered Clouds
1:50 PM51.8 °F35.6 °F54 %29.92 in6.2 miWest (260°)17.3 mph28.8 mphScattered Clouds
2:20 PM50.0 °F33.8 °F54 %29.95 in6.2 miWest (260°)18.4 mph33.4 mphScattered Clouds
2:50 PM50.0 °F35.6 °F58 %29.92 in6.2 miWest (260°)17.3 mph29.9 mphPartly Cloudy
3:20 PM50.0 °F35.6 °F58 %29.92 in6.2 miWest (260°)13.8 mph26.5 mphPartly Cloudy
3:50 PM50.0 °F35.6 °F58 %29.95 in6.2 miWSW (250°)13.8 mphScattered Clouds
4:20 PM50.0 °F33.8 °F54 %29.95 in6.2 miWSW (250°)12.7 mph24.2 mphScattered Clouds
4:50 PM48.2 °F35.6 °F62 %29.95 in6.2 miWSW (250°)11.5 mphScattered Clouds
5:20 PM48.2 °F35.6 °F62 %29.95 in6.2 miSW (230°)10.4 mphPartly Cloudy
5:50 PM48.2 °F35.6 °F62 %29.98 in6.2 miSW (230°)12.7 mphPartly Cloudy
6:20 PM48.2 °F35.6 °F62 %29.98 in6.2 miSW (230°)12.7 mphPartly Cloudy
6:50 PM48.2 °F35.6 °F62 %29.98 inSW (230°)12.7 mphClear
7:20 PM46.4 °F35.6 °F66 %29.95 inSW (230°)11.5 mphClear
7:50 PM46.4 °F35.6 °F66 %29.95 inSW (230°)11.5 mphClear
8:20 PM46.4 °F37.4 °F71 %29.95 inSW (230°)11.5 mphClear
8:50 PM46.4 °F39.2 °F76 %29.95 inSW (230°)9.2 mphClear
9:20 PM46.4 °F39.2 °F76 %29.95 inSW (230°)9.2 mphClear
9:50 PM46.4 °F39.2 °F76 %29.95 inWSW (240°)8.1 mphClear
10:20 PM46.4 °F39.2 °F76 %29.92 inWSW (240°)9.2 mphClear
Hourly data recorded from EGHI, located miles away from Chapel, England







STORIES FROM OUR PARTNERS